Weather History for Saltillo, Mexico

Change the Weather History Date:

Sunday, December 30, 2012

  Actual Average Record
Temperature  
Mean Temperature 48 °F -  
Max Temperature 68 °F 66 °F 82 °F (2011)
Min Temperature 29 °F 44 °F 29 °F (2012)
Degree Days  
Heating Degree Days 16    
Moisture  
Dew Point 29 °F    
Average Humidity 51    
Maximum Humidity 70    
Minimum Humidity 20    
Precipitation  
Precipitation 0.00 in - - ()
Sea Level Pressure  
Sea Level Pressure 30.18 in    
Wind  
Wind Speed 6 mph ()    
Max Wind Speed 18 mph    
Max Gust Speed -    
Visibility 8.1 miles    
Events      
Averages and records for this station are not official NWS values.
T = Trace of Precipitation, MM = Missing Value Source: Averaged Metar Reports

Daily Weather History Graph

Daily Weather History Graph

Search for Another Location

Airport:

Trip Planner

Search our weather history database for the weather conditions in past years. The results will help you decide how hot, cold, wet, or windy it might be!

Date:

Astronomy

Dec. 30, 2012 Rise Set
Actual Time 7:29 AM CST 6:03 PM CST
Civil Twilight 7:04 AM CST 6:28 PM CST
Nautical Twilight 6:35 AM CST 6:57 PM CST
Astronomical Twilight 6:07 AM CST 7:25 PM CST
Moon 8:21 PM CST 8:53 AM CST
Length of Visible Light 11h 24m
Length of Day
10h 34m
Waning Gibbous, 95% of the Moon is Illuminated
Dec 30
Waning Gibbous
Jan 4
Last Quarter
Jan 11
New
Jan 18
First Quarter
Jan 26
Full

Hourly Weather History & Observations

Time (CST) Temp. Windchill Dew Point Humidity Pressure Visibility Wind Dir Wind Speed Gust Speed Precip Events Conditions
2:30 AM 32 °F - 19 °F 46% 30.30 in 3 mi South 6.7 mph - -   Haze
5:30 AM 33 °F - 22 °F 51% 30.28 in 3 mi South 8.9 mph - -   Haze
6:40 AM 37.4 °F 32.8 °F 24.8 °F 60% 30.26 in 10.0 mi NE 5.8 mph - N/A   Mostly Cloudy
7:40 AM 32.0 °F 26.4 °F 21.2 °F 64% 30.28 in 10.0 mi North 5.8 mph - N/A   Mostly Cloudy
8:30 AM 40 °F - 32 °F 63% 30.34 in 7 mi South 6.7 mph - -   Partly Cloudy
8:40 AM 33.8 °F - 24.8 °F 70% 30.29 in 10.0 mi Calm Calm - N/A   Mostly Cloudy
9:40 AM 39.2 °F - 26.6 °F 61% 30.28 in 10.0 mi Calm Calm - N/A   Mostly Cloudy
10:40 AM 42.8 °F 37.0 °F 28.4 °F 57% 30.28 in 10.0 mi North 10.4 mph - N/A   Mostly Cloudy
11:30 AM 56 °F - 39 °F 41% 30.27 in 7 mi WSW 17.9 mph - -   Haze
11:40 AM 44.6 °F 40.7 °F 28.4 °F 53% 30.27 in 10.0 mi NNE 6.9 mph - N/A   Mostly Cloudy
12:40 PM 48.2 °F - 30.2 °F 50% 30.24 in 10.0 mi North 6.9 mph - N/A   Mostly Cloudy
1:40 PM 48.2 °F - 28.4 °F 46% 30.20 in 10.0 mi Calm Calm - N/A   Mostly Cloudy
2:30 PM 65 °F - 34 °F 20% 30.04 in 7 mi NNW 11.2 mph - -   Haze
2:40 PM 53.6 °F - 33.8 °F 47% 30.16 in 10.0 mi Calm Calm - N/A   Mostly Cloudy
3:40 PM 53.6 °F - 35.6 °F 51% 30.13 in 10.0 mi North 9.2 mph - N/A   Mostly Cloudy
4:40 PM 50.0 °F - 37.4 °F 62% 30.13 in 10.0 mi NE 9.2 mph - N/A   Mostly Cloudy
5:30 PM 55 °F - 29 °F 24% 29.95 in 6 mi WNW 4.5 mph - -   Haze
5:40 PM 48.2 °F - 33.8 °F 58% 30.12 in 10.0 mi NE 9.2 mph - N/A   Mostly Cloudy
6:40 PM 44.6 °F 39.7 °F 28.4 °F 53% 30.14 in 10.0 mi NE 9.2 mph - N/A   Scattered Clouds
7:40 PM 42.8 °F 38.6 °F 24.8 °F 49% 30.14 in 10.0 mi NE 6.9 mph - N/A   Scattered Clouds
8:30 PM 51 °F - 36 °F 45% 29.91 in 3 mi SSE 6.7 mph - -   Haze
8:40 PM 41.0 °F - 24.8 °F 53% 30.14 in 8.0 mi Calm Calm - N/A   Scattered Clouds
9:40 PM 41.0 °F 36.4 °F 24.8 °F 53% 30.14 in 8.0 mi NNE 6.9 mph - N/A   Scattered Clouds
11:30 PM 58 °F - 39 °F 37% 29.94 in 3 mi SSW 11.2 mph - -   Haze